Погода в Горскине

Россия / Кемеровская область (Кузбасс)     54°27′46″N   85°38′13″E
темп.,
°C
ветер,
м/с
пор.,
м/с
влажн.,
%
обл.,
%
осадки,
мм/ч
давл.,
гПа
погр.,
м
15 мая, сб
сб1501:00+9з2250100 0.0 102325
04:00+11зюз354486 0.0 1023103
07:00+11юз51053100 0.0 1023269
10:00+16зюз7103976 0.0 1022758
13:00+19зюз693599 0.0 10211259
16:00+21зюз7103917 0.1 10191464
19:00+20зюз6104314 0.1 1018796
22:00+16юз614505 0.0 1017339
16 мая, вс
вс1601:00+14юз5146665 0.5 1017276
04:00+12юз5127394 0.4 1016262
07:00+14зюз41174100 0.9 1016377
10:00+19зюз575478 0.1 1014784
13:00+23з694566 0.1 10121742
16:00+25зюз8113751 0.0 10092913
19:00+19зсз5965100 3.3 1009535
22:00+14ссз4894100 15.6 1011451
17 мая, пн
пн1701:00+13ссз4697100 19.1 1011312
04:00+10с469297 0.1 1013334
07:00+8с5692100 0.1 1015392
10:00+11с4580100 0.0 1017605
13:00+15ссз336131 0.0 1016979
16:00+17сз455494 0.0 10161566
19:00+17ссз355916 0.0 1015854
22:00+13юз117287 0.0 101510
18 мая, вт
вт1801:00+11ююз357964 0.0 101479
04:00+13юз61474100 0.0 1011366
07:00+14юз101976100 0.6 1007636
10:00+17зюз91573100 0.3 1006653
13:00+21з6958100 0.3 10051318
16:00+21зсз812635 2.4 10041421
19:00+19сз6117098 3.2 10041104
22:00+13сз3793100 3.2 1006154
19 мая, ср
ср1901:00+12зсз489690 3.6 1006226
04:00+10зсз249734 0.0 1006110
07:00+11сз4793100 0.0 1006620
10:00+9ссв4691100 0.1 1006516
13:00+9ссв6781100 0.1 1006763
16:00+12ссв6764100 0.1 10061398
19:00+11ссв5958100 0.1 1007685
22:00+7ссв71454100 0.0 1008547